Weather History for PHNL - April, 2014

Change the Weather History Date:

Wednesday, April 2, 2014

  Actual Average Record
Temperature  
Mean Temperature 80 °F 76 °F  
Max Temperature 85 °F 82 °F 87 °F (1983)
Min Temperature 75 °F 69 °F 61 °F (2013)
Degree Days  
Heating Degree Days 0 0  
Month to date heating degree days 0 0  
Since 1 July heating degree days 0 0  
Cooling Degree Days 15 11  
Month to date cooling degree days 30 22  
Year to date cooling degree days 858 797  
Growing Degree Days 28 (Base 50)    
Moisture  
Dew Point 65 °F    
Average Humidity 63    
Maximum Humidity 74    
Minimum Humidity 51    
Precipitation  
Precipitation 0.00 in 0.04 in 1.96 in (1963)
Month to date precipitation 0.03 0.08  
Year to date precipitation 6.32 6.40  
Snow  
Snow 0.00 in - - ()
Month to date snowfall 0.0  
Since 1 July snowfall 0.0  
Snow Depth 0.00 in    
Sea Level Pressure  
Sea Level Pressure 30.09 in    
Wind  
Wind Speed 15 mph (ENE)    
Max Wind Speed 24 mph    
Max Gust Speed 30 mph    
Visibility 10 miles    
Events      
T = Trace of Precipitation, MM = Missing Value Source: NWS Daily Summary

Daily Weather History Graph

Daily Weather History Graph

Search for Another Location

Airport or City:

Trip Planner

Search our weather history database for the weather conditions in past years. The results will help you decide how hot, cold, wet, or windy it might be!

Date:

Astronomy

Apr. 02, 2014 Rise Set
Actual Time 6:23 AM HST 6:46 PM HST
Civil Twilight 6:01 AM HST 7:09 PM HST
Nautical Twilight 5:35 AM HST 7:35 PM HST
Astronomical Twilight 5:08 AM HST 8:01 PM HST
Moon 8:37 AM HST (4/2) 9:57 PM HST (4/2)
Length of Visible Light 13h 07m
Length of Day
12h 23m
Waxing Crescent, 11% of the Moon is Illuminated
Apr 2
Waxing Crescent
Apr 6
First Quarter
Apr 14
Full
Apr 21
Last Quarter
Apr 28
New

Hourly Weather History & Observations

Time (HST) Temp. Heat Index Dew Point Humidity Pressure Visibility Wind Dir Wind Speed Gust Speed Precip Events Conditions
12:53 AM 75.0 °F - 66.0 °F 73% 30.08 in 10.0 mi NE 6.9 mph - N/A   Scattered Clouds
2:53 AM 75.0 °F - 66.0 °F 73% 30.06 in 10.0 mi ENE 16.1 mph 24.2 mph N/A   Scattered Clouds
3:53 AM 75.0 °F - 64.9 °F 71% 30.06 in 10.0 mi ENE 17.3 mph 23.0 mph N/A   Partly Cloudy
4:53 AM 75.0 °F - 64.9 °F 71% 30.07 in 10.0 mi ENE 13.8 mph 20.7 mph N/A   Scattered Clouds
5:53 AM 75.0 °F - 64.9 °F 71% 30.07 in 10.0 mi East 15.0 mph 20.7 mph N/A   Scattered Clouds
6:53 AM 75.0 °F - 66.0 °F 73% 30.09 in 10.0 mi ENE 10.4 mph - N/A   Scattered Clouds
7:53 AM 77.0 °F - 66.0 °F 69% 30.10 in 10.0 mi ENE 15.0 mph - N/A   Scattered Clouds
8:53 AM 78.1 °F - 66.0 °F 66% 30.11 in 10.0 mi ENE 13.8 mph 28.8 mph N/A   Mostly Cloudy
9:53 AM 80.1 °F 81.9 °F 64.9 °F 60% 30.12 in 10.0 mi ENE 18.4 mph - N/A   Scattered Clouds
10:53 AM 81.0 °F 83.0 °F 66.0 °F 60% 30.12 in 10.0 mi NE 16.1 mph - N/A   Scattered Clouds
11:53 AM 82.9 °F 85.0 °F 66.0 °F 56% 30.11 in 10.0 mi NE 16.1 mph 25.3 mph N/A   Scattered Clouds
12:53 PM 84.0 °F 85.8 °F 64.9 °F 53% 30.09 in 10.0 mi NE 17.3 mph 28.8 mph N/A   Scattered Clouds
1:53 PM 84.0 °F 86.3 °F 66.0 °F 55% 30.08 in 10.0 mi ENE 21.9 mph 26.5 mph N/A   Scattered Clouds
2:53 PM 82.0 °F 84.1 °F 66.0 °F 58% 30.06 in 10.0 mi ENE 13.8 mph 26.5 mph N/A   Mostly Cloudy
3:53 PM 81.0 °F 83.3 °F 66.9 °F 62% 30.06 in 10.0 mi NE 16.1 mph 25.3 mph N/A   Scattered Clouds
4:53 PM 81.0 °F 82.7 °F 64.9 °F 58% 30.06 in 10.0 mi ENE 18.4 mph 28.8 mph N/A   Scattered Clouds
5:53 PM 79.0 °F - 64.0 °F 60% 30.07 in 10.0 mi ENE 24.2 mph 31.1 mph N/A   Scattered Clouds
6:53 PM 77.0 °F - 64.9 °F 66% 30.08 in 10.0 mi East 23.0 mph 33.4 mph N/A   Scattered Clouds
7:53 PM 77.0 °F - 64.9 °F 66% 30.09 in 10.0 mi NE 24.2 mph 32.2 mph N/A   Scattered Clouds
8:53 PM 77.0 °F - 64.9 °F 66% 30.12 in 10.0 mi ENE 18.4 mph 29.9 mph 0.00 in   Scattered Clouds
9:53 PM 75.9 °F - 64.0 °F 67% 30.14 in 10.0 mi ENE 9.2 mph - 0.00 in   Scattered Clouds
10:53 PM 75.9 °F - 64.0 °F 67% 30.14 in 10.0 mi NE 8.1 mph - N/A   Scattered Clouds
11:53 PM 75.9 °F - 64.0 °F 67% 30.14 in 10.0 mi ENE 13.8 mph 23.0 mph N/A   Scattered Clouds